Location: Newark
(59.4564°N, 26.6917°E)
Time: 21:40:22
(UTC+00:00)

OTV 5 (USA 277) - Visible Passes

Search period start: 15 October 2019 00:00
Search period end: 25 October 2019 00:00
Orbit: 310 x 324 km, 54.5° (Epoch: 08 October)

Date Brightness Start Highest point End Pass type
(mag) Time Alt. Az. Time Alt. Az. Time Alt. Az.
15 Oct ? 02:22:12 20° SSE 02:22:12 20° SSE 02:23:30 10° SE visible
15 Oct ? 03:53:18 10° WSW 03:54:49 14° SSW 03:56:19 10° S visible
16 Oct ? 02:36:26 18° SSE 02:36:26 18° SSE 02:37:42 10° SE visible
17 Oct ? 02:50:44 14° S 02:50:44 14° S 02:51:39 10° SSE visible
